Time,TemperatureF,DewpointF,PressureIn,WindDirection,WindDirectionDegrees,WindSpeedMPH,WindSpeedGustMPH,Humidity,HourlyPrecipIn,Conditions,Clouds,dailyrainin,SoftwareType,DateUTC
2013-09-18 00:15:00,60.0,55.8,30.17,WNW,287,0.0,0.0,86,0.00,OVC,,0.00,WeatherDisplay:10.37,2013-09-18 04:15:00,
2013-09-18 00:30:00,59.9,55.7,30.17,WNW,287,0.0,0.0,86,0.00,OVC,,0.00,WeatherDisplay:10.37,2013-09-18 04:30:00,
2013-09-18 00:45:00,59.7,55.5,30.17,WNW,287,0.0,0.0,86,0.00,OVC,,0.00,WeatherDisplay:10.37,2013-09-18 04:45:00,
2013-09-18 01:00:00,59.6,55.4,30.17,WNW,287,0.0,0.0,86,0.00,OVC,,0.00,WeatherDisplay:10.37,2013-09-18 05:00:00,
2013-09-18 01:15:00,59.4,55.2,30.16,WNW,287,0.0,0.0,86,0.00,OVC,,0.00,WeatherDisplay:10.37,2013-09-18 05:15:00,
2013-09-18 01:30:00,59.2,55.0,30.16,WNW,287,0.0,0.0,86,0.00,OVC,,0.00,WeatherDisplay:10.37,2013-09-18 05:30:00,
2013-09-18 01:45:00,59.0,54.8,30.16,WNW,287,0.0,0.0,86,0.00,OVC,,0.00,WeatherDisplay:10.37,2013-09-18 05:45:00,
2013-09-18 02:00:00,59.0,54.8,30.16,WNW,287,0.0,0.0,86,0.00,OVC,,0.00,WeatherDisplay:10.37,2013-09-18 06:00:00,
2013-09-18 02:15:00,59.0,54.8,30.16,WNW,287,0.0,1.0,86,0.00,OVC,,0.00,WeatherDisplay:10.37,2013-09-18 06:15:00,
2013-09-18 02:30:00,59.0,55.1,30.16,WNW,287,0.0,1.0,87,0.00,OVC,,0.00,WeatherDisplay:10.37,2013-09-18 06:30:00,
2013-09-18 02:45:00,58.9,54.7,30.16,WNW,287,0.0,0.0,86,0.00,OVC,,0.00,WeatherDisplay:10.37,2013-09-18 06:45:00,
2013-09-18 03:00:00,58.8,54.6,30.15,WNW,287,0.0,0.0,86,0.00,OVC,,0.00,WeatherDisplay:10.37,2013-09-18 07:00:00,
2013-09-18 03:15:00,58.6,54.4,30.15,WNW,287,0.0,1.0,86,0.00,OVC,,0.00,WeatherDisplay:10.37,2013-09-18 07:15:00,
2013-09-18 03:32:00,58.6,54.7,30.15,WNW,287,0.0,0.0,87,0.00,OVC,,0.00,WeatherDisplay:10.37,2013-09-18 07:32:00,
2013-09-18 03:45:00,58.5,54.6,30.15,WNW,287,0.0,0.0,87,0.00,OVC,,0.00,WeatherDisplay:10.37,2013-09-18 07:45:00,
2013-09-18 04:00:00,58.4,54.5,30.15,WNW,287,0.0,0.0,87,0.00,OVC,,0.00,WeatherDisplay:10.37,2013-09-18 08:00:00,
2013-09-18 04:15:00,58.3,54.4,30.14,WNW,287,0.0,1.0,87,0.00,OVC,,0.00,WeatherDisplay:10.37,2013-09-18 08:15:00,
2013-09-18 04:30:00,58.2,54.3,30.14,WNW,287,0.0,0.0,87,0.00,OVC,,0.00,WeatherDisplay:10.37,2013-09-18 08:30:00,
2013-09-18 04:45:00,58.1,54.2,30.14,WNW,287,0.0,0.0,87,0.00,OVC,,0.00,WeatherDisplay:10.37,2013-09-18 08:45:00,
2013-09-18 05:00:00,58.0,54.2,30.14,WNW,287,0.0,1.0,87,0.00,OVC,,0.00,WeatherDisplay:10.37,2013-09-18 09:00:00,
2013-09-18 05:15:00,57.9,54.1,30.14,WNW,288,0.0,1.0,87,0.00,OVC,,0.00,WeatherDisplay:10.37,2013-09-18 09:15:00,
2013-09-18 05:30:00,57.8,54.0,30.14,WNW,287,0.0,0.0,87,0.00,OVC,,0.00,WeatherDisplay:10.37,2013-09-18 09:30:00,
2013-09-18 05:45:00,57.8,54.0,30.14,WNW,287,0.0,1.0,87,0.00,OVC,,0.00,WeatherDisplay:10.37,2013-09-18 09:45:00,
2013-09-18 06:00:00,57.7,53.9,30.14,WNW,287,0.0,0.0,87,0.00,OVC,,0.00,WeatherDisplay:10.37,2013-09-18 10:00:00,
2013-09-18 06:15:00,57.6,53.8,30.14,WNW,287,0.0,0.0,87,0.00,OVC,,0.00,WeatherDisplay:10.37,2013-09-18 10:15:00,
2013-09-18 06:30:00,57.5,53.7,30.15,WNW,287,0.0,0.0,87,0.00,OVC,,0.00,WeatherDisplay:10.37,2013-09-18 10:30:00,
2013-09-18 06:45:00,57.5,53.7,30.15,WNW,287,0.0,0.0,87,0.00,BKN,,0.00,WeatherDisplay:10.37,2013-09-18 10:45:00,
2013-09-18 07:00:00,57.4,53.6,30.16,WNW,287,0.0,0.0,87,0.00,BKN,,0.00,WeatherDisplay:10.37,2013-09-18 11:00:00,
2013-09-18 07:15:00,57.3,53.5,30.16,WNW,287,0.0,0.0,87,0.00,BKN,,0.00,WeatherDisplay:10.37,2013-09-18 11:15:00,
2013-09-18 07:30:00,57.3,53.5,30.16,WNW,287,0.0,0.0,87,0.00,BKN,,0.00,WeatherDisplay:10.37,2013-09-18 11:30:00,
2013-09-18 07:45:00,57.2,53.4,30.16,WNW,287,0.0,0.0,87,0.00,BKN,,0.00,WeatherDisplay:10.37,2013-09-18 11:45:00,
2013-09-18 08:00:00,57.3,53.5,30.17,WNW,287,0.0,0.0,87,0.00,BKN,,0.00,WeatherDisplay:10.37,2013-09-18 12:00:00,
2013-09-18 08:15:00,57.4,53.5,30.17,WNW,287,0.0,1.0,87,0.00,BKN,,0.00,WeatherDisplay:10.37,2013-09-18 12:15:00,
2013-09-18 08:30:00,57.6,53.8,30.17,WNW,287,0.0,1.0,87,0.00,BKN,,0.00,WeatherDisplay:10.37,2013-09-18 12:30:00,
2013-09-18 08:45:00,57.8,53.9,30.17,WNW,287,0.0,1.0,87,0.00,BKN,,0.00,WeatherDisplay:10.37,2013-09-18 12:45:00,
2013-09-18 09:00:00,58.4,54.2,30.17,WNW,287,0.0,1.0,86,0.00,BKN,,0.00,WeatherDisplay:10.37,2013-09-18 13:00:00,
2013-09-18 09:15:00,60.0,54.8,30.17,NE,41,0.0,4.0,83,0.00,BKN,,0.00,WeatherDisplay:10.37,2013-09-18 13:15:00,
2013-09-18 09:30:00,60.9,54.0,30.18,ENE,65,2.0,5.0,78,0.00,BKN,,0.00,WeatherDisplay:10.37,2013-09-18 13:30:00,
2013-09-18 09:45:00,61.3,54.0,30.19,ENE,72,0.0,3.0,77,0.00,OVC,,0.00,WeatherDisplay:10.37,2013-09-18 13:45:00,
2013-09-18 10:00:00,61.5,54.9,30.19,ENE,71,0.0,2.0,79,0.00,OVC,,0.00,WeatherDisplay:10.37,2013-09-18 14:00:00,
2013-09-18 10:15:00,61.6,55.4,30.19,ENE,71,0.0,1.0,80,0.00,OVC,,0.00,WeatherDisplay:10.37,2013-09-18 14:15:00,
2013-09-18 10:30:00,61.8,55.6,30.18,ENE,66,0.0,3.0,80,0.00,OVC,,0.00,WeatherDisplay:10.37,2013-09-18 14:30:00,
2013-09-18 10:45:00,62.4,55.5,30.19,West,260,0.0,6.0,78,0.00,OVC,,0.00,WeatherDisplay:10.37,2013-09-18 14:45:00,
2013-09-18 11:00:00,63.4,55.4,30.18,NE,39,2.0,4.0,75,0.00,OVC,,0.00,WeatherDisplay:10.37,2013-09-18 15:00:00,
2013-09-18 11:15:00,64.3,54.7,30.18,ENE,72,0.0,4.0,71,0.00,OVC,,0.00,WeatherDisplay:10.37,2013-09-18 15:15:00,
2013-09-18 11:30:00,65.9,55.0,30.17,ENE,70,0.0,4.0,68,0.00,OVC,,0.00,WeatherDisplay:10.37,2013-09-18 15:30:00,
2013-09-18 11:45:00,66.1,55.6,30.17,NW,308,0.0,4.0,69,0.00,OVC,,0.00,WeatherDisplay:10.37,2013-09-18 15:45:00,
2013-09-18 12:00:00,66.6,56.5,30.16,NNW,344,0.0,2.0,70,0.00,OVC,,0.00,WeatherDisplay:10.37,2013-09-18 16:00:00,
2013-09-18 12:15:00,67.4,56.5,30.16,ENE,68,2.0,4.0,68,0.00,OVC,,0.00,WeatherDisplay:10.37,2013-09-18 16:15:00,
2013-09-18 12:30:00,66.7,56.6,30.16,ENE,67,0.0,2.0,70,0.00,OVC,,0.00,WeatherDisplay:10.37,2013-09-18 16:30:00,
2013-09-18 12:45:00,66.5,56.4,30.15,ENE,67,0.0,3.0,70,0.00,OVC,,0.00,WeatherDisplay:10.37,2013-09-18 16:45:00,
2013-09-18 13:00:00,66.4,57.1,30.15,ENE,70,1.0,4.0,72,0.00,OVC,,0.00,WeatherDisplay:10.37,2013-09-18 17:00:00,
2013-09-18 13:15:00,66.4,56.3,30.15,ENE,76,0.0,2.0,70,0.00,OVC,,0.00,WeatherDisplay:10.37,2013-09-18 17:15:00,
2013-09-18 13:30:00,66.8,57.1,30.15,ENE,72,0.0,4.0,71,0.00,OVC,,0.00,WeatherDisplay:10.37,2013-09-18 17:30:00,
2013-09-18 13:45:00,67.1,57.7,30.14,ENE,69,0.0,3.0,72,0.00,OVC,,0.00,WeatherDisplay:10.37,2013-09-18 17:45:00,
2013-09-18 14:00:00,67.1,58.1,30.14,ENE,66,0.0,4.0,73,0.00,OVC,,0.00,WeatherDisplay:10.37,2013-09-18 18:00:00,
2013-09-18 14:15:00,66.8,57.9,30.14,ENE,65,0.0,3.0,73,0.00,OVC,,0.00,WeatherDisplay:10.37,2013-09-18 18:15:00,
2013-09-18 14:30:00,66.5,58.3,30.14,ENE,65,0.0,2.0,75,0.00,OVC,,0.00,WeatherDisplay:10.37,2013-09-18 18:30:00,
2013-09-18 14:45:00,66.5,58.3,30.13,ENE,65,0.0,1.0,75,0.00,OVC,,0.00,WeatherDisplay:10.37,2013-09-18 18:45:00,
2013-09-18 15:00:00,66.6,58.0,30.13,ENE,65,0.0,2.0,74,0.00,OVC,,0.00,WeatherDisplay:10.37,2013-09-18 19:00:00,
2013-09-18 15:15:00,66.5,58.7,30.12,ENE,65,0.0,1.0,76,0.00,OVC,,0.00,WeatherDisplay:10.37,2013-09-18 19:15:00,
2013-09-18 15:30:00,66.6,58.8,30.12,ENE,65,0.0,1.0,76,0.00,OVC,,0.00,WeatherDisplay:10.37,2013-09-18 19:30:00,
2013-09-18 15:45:00,66.6,59.2,30.11,ENE,65,0.0,0.0,77,0.00,OVC,,0.00,WeatherDisplay:10.37,2013-09-18 19:45:00,
2013-09-18 16:00:00,66.7,58.9,30.11,ENE,65,0.0,1.0,76,0.00,OVC,,0.00,WeatherDisplay:10.37,2013-09-18 20:00:00,
2013-09-18 16:15:00,66.8,59.4,30.11,NE,46,2.0,4.0,77,0.00,OVC,,0.00,WeatherDisplay:10.37,2013-09-18 20:15:00,
2013-09-18 16:30:00,66.9,59.4,30.10,ESE,117,0.0,7.0,77,0.00,OVC,,0.00,WeatherDisplay:10.37,2013-09-18 20:30:00,
2013-09-18 16:45:00,66.7,59.3,30.11,NE,36,0.0,4.0,77,0.00,OVC,,0.00,WeatherDisplay:10.37,2013-09-18 20:45:00,
2013-09-18 17:00:00,66.6,59.5,30.10,NW,309,0.0,4.0,78,0.00,OVC,,0.00,WeatherDisplay:10.37,2013-09-18 21:00:00,
2013-09-18 17:15:00,66.8,59.7,30.10,WNW,289,0.0,4.0,78,0.00,OVC,,0.00,WeatherDisplay:10.37,2013-09-18 21:15:00,
2013-09-18 17:30:00,66.8,59.7,30.10,NW,322,1.0,3.0,78,0.00,OVC,,0.00,WeatherDisplay:10.37,2013-09-18 21:30:00,
2013-09-18 17:45:00,66.7,59.6,30.10,NNW,335,0.0,2.0,78,0.00,OVC,,0.00,WeatherDisplay:10.37,2013-09-18 21:45:00,
2013-09-18 18:00:00,66.8,60.8,30.10,NNW,335,0.0,0.0,81,0.00,OVC,,0.00,WeatherDisplay:10.37,2013-09-18 22:00:00,
2013-09-18 18:15:00,66.6,60.9,30.09,NNW,335,0.0,0.0,82,0.00,OVC,,0.00,WeatherDisplay:10.37,2013-09-18 22:15:00,
2013-09-18 18:30:00,66.4,61.4,30.09,NNW,335,0.0,0.0,84,0.00,OVC,,0.00,WeatherDisplay:10.37,2013-09-18 22:30:00,
2013-09-18 18:45:00,66.3,61.3,30.09,NNW,335,0.0,0.0,84,0.00,-RA,,0.00,WeatherDisplay:10.37,2013-09-18 22:45:00,
2013-09-18 19:00:00,66.2,61.2,30.09,NNW,335,0.0,0.0,84,0.00,-RA,,0.00,WeatherDisplay:10.37,2013-09-18 23:00:00,
2013-09-18 19:15:00,65.8,60.8,30.09,NNW,335,0.0,0.0,84,0.00,-RA,,0.00,WeatherDisplay:10.37,2013-09-18 23:15:00,
2013-09-18 19:30:00,65.2,60.5,30.08,NNW,335,0.0,1.0,85,0.00,-RA,,0.00,WeatherDisplay:10.37,2013-09-18 23:30:00,
2013-09-18 20:00:00,63.4,59.1,30.09,NNW,335,0.0,0.0,86,0.00,OVC,,0.00,WeatherDisplay:10.37,2013-09-19 00:00:00,
2013-09-18 20:30:00,62.3,58.1,30.09,NNW,335,0.0,0.0,86,0.00,OVC,,0.00,WeatherDisplay:10.37,2013-09-19 00:30:00,
2013-09-18 20:45:00,61.8,57.6,30.10,NNW,335,0.0,0.0,86,0.00,OVC,,0.00,WeatherDisplay:10.37,2013-09-19 00:45:00,
2013-09-18 21:00:00,61.4,57.1,30.11,NNW,335,0.0,0.0,86,0.00,OVC,,0.00,WeatherDisplay:10.37,2013-09-19 01:00:00,
2013-09-18 21:15:00,61.1,56.9,30.11,NNW,335,0.0,0.0,86,0.00,OVC,,0.00,WeatherDisplay:10.37,2013-09-19 01:15:00,
2013-09-18 21:30:00,60.9,56.7,30.12,NNW,335,0.0,0.0,86,0.00,OVC,,0.00,WeatherDisplay:10.37,2013-09-19 01:30:00,
2013-09-18 21:45:00,60.7,56.8,30.12,NNW,335,0.0,0.0,87,0.00,OVC,,0.00,WeatherDisplay:10.37,2013-09-19 01:45:00,
2013-09-18 22:00:00,60.5,56.6,30.12,NNW,335,0.0,0.0,87,0.00,OVC,,0.00,WeatherDisplay:10.37,2013-09-19 02:00:00,
2013-09-18 22:15:00,60.3,56.4,30.12,NNW,334,0.0,0.0,87,0.00,OVC,,0.00,WeatherDisplay:10.37,2013-09-19 02:15:00,
2013-09-18 22:30:00,60.0,56.1,30.12,NNW,335,0.0,0.0,87,0.00,OVC,,0.00,WeatherDisplay:10.37,2013-09-19 02:30:00,
2013-09-18 22:45:00,59.6,55.8,30.12,NNW,335,0.0,0.0,87,0.00,OVC,,0.00,WeatherDisplay:10.37,2013-09-19 02:45:00,
2013-09-18 23:00:00,59.0,55.1,30.12,NNW,335,0.0,0.0,87,0.00,OVC,,0.00,WeatherDisplay:10.37,2013-09-19 03:00:00,
2013-09-18 23:15:00,59.0,55.1,30.12,NNW,335,0.0,0.0,87,0.00,OVC,,0.00,WeatherDisplay:10.37,2013-09-19 03:15:00,
2013-09-18 23:30:00,58.6,54.7,30.12,NNW,334,0.0,0.0,87,0.00,OVC,,0.00,WeatherDisplay:10.37,2013-09-19 03:30:00,
2013-09-18 23:45:00,58.5,55.0,30.12,NNW,335,0.0,1.0,88,0.00,OVC,,0.00,WeatherDisplay:10.37,2013-09-19 03:45:00,